Flag for Poland Weather past 2 weeks in Szczecin, Poland

Now
27 °F

Ice fog.


Feels Like: 27 °F
Forecast: 35 / 49 °F
Wind: No wind

Location: Szczecin Airport

Current Time: Mar 6, 2015 at 3:32:21 AM

Latest Report: Mar 6, 2015 at 3:00 AM


Visibility: 2 mi

Pressure: 30.48 "Hg

Humidity: 100%

Dew point: 27 °F

Location of SzczecinLocation

Historic Weather in Szczecin — Graph

°F

Szczecin temperature yesterday

Maximum temperature yesterday: 41 °F (at 3:30 PM)
Minimum temperature yesterday: 27 °F (at 9:30 PM)
Average temperature yesterday: 35 °F

Past Weeks' High & Low Weather Summary

 TemperatureHumidityPressure
High50 °F (Feb 21, 1:00 PM)100% (Feb 20, 5:30 AM)30.51 "Hg (Feb 20, 5:30 AM)
Low23 °F (Feb 26, 7:30 AM)40% (Feb 19, 3:30 PM)29.33 "Hg (Feb 21, 2:00 PM)
Average37 °F80%29.87 "Hg
* Reported Feb 19 2:00 AM — Mar 6 2:30 AM, Szczecin, Weather by CustomWeather, © 2015

Note: Actual official high and low records may vary slightly from our data, if they occured in-between our weather recording intervals... More about our weather records

Advertising

Szczecin weather history for previous 24 hours

 ConditionsComfort  
Time TempWeatherWind HumidityBarometerVisibility
2:30 AM
Fri, Mar 6
28 °FIce fog.No wind100%30.51 "Hg2 mi
2:00 AM28 °FIce fog.3 mph100%30.51 "Hg2 mi
1:30 AM28 °FIce fog.3 mph100%30.51 "Hg2 mi
1:00 AM27 °FIce fog.2 mph93%30.51 "Hg3 mi
12:30 AM27 °FClear.No wind93%30.51 "Hg4 mi
12:00 AM27 °FClear.No wind93%30.51 "Hg5 mi
11:30 PM
Thu, Mar 5
27 °FClear.No wind100%30.51 "Hg4 mi
11:00 PM28 °FClear.No wind93%30.51 "Hg10 mi
10:30 PM28 °FPassing clouds.No wind100%30.51 "HgN/A
10:00 PM28 °FPassing clouds.2 mph93%30.51 "HgN/A
9:30 PM27 °FClear.2 mph93%30.48 "Hg10 mi
9:00 PM28 °FPassing clouds.2 mph93%30.48 "HgN/A
8:30 PM28 °FClear.No wind93%30.48 "Hg10 mi
8:00 PM30 °FClear.No wind93%30.48 "Hg10 mi
7:30 PM30 °FPassing clouds.No wind86%30.48 "HgN/A
7:00 PM34 °FPassing clouds.No wind81%30.48 "HgN/A
6:30 PM36 °FPassing clouds.2 mph75%30.48 "HgN/A
6:00 PM37 °FPassing clouds.5 mph70%30.45 "HgN/A
5:30 PM39 °FPartly sunny.3 mph65%30.45 "HgN/A
5:00 PM39 °FBroken clouds.9 mph65%30.45 "HgN/A
4:30 PM41 °FBroken clouds.8 mph61%30.45 "HgN/A
4:00 PM41 °FBroken clouds.8 mph66%30.42 "HgN/A
3:30 PM41 °FBroken clouds.9 mph70%30.42 "HgN/A
3:00 PM39 °FBroken clouds.8 mph75%30.42 "HgN/A
2:30 PM39 °FBroken clouds.9 mph75%30.42 "HgN/A
2:00 PM39 °FPartly sunny.10 mph70%30.42 "HgN/A
1:30 PM39 °FPartly sunny.13 mph70%30.42 "HgN/A
1:00 PM39 °FPartly sunny.10 mph70%30.42 "HgN/A
12:30 PM37 °FPartly sunny.9 mph75%30.42 "HgN/A
12:00 PM37 °FBroken clouds.10 mph75%30.42 "HgN/A
11:30 AM37 °FBroken clouds.13 mph81%30.42 "HgN/A
11:00 AM36 °FBroken clouds.13 mph87%30.42 "HgN/A
10:30 AM34 °FPartly sunny.14 mph93%30.39 "HgN/A
10:00 AM36 °FBroken clouds.15 mph87%30.39 "HgN/A
9:30 AM36 °FBroken clouds.15 mph87%30.39 "HgN/A
9:00 AM36 °FPartly sunny.14 mph87%30.39 "HgN/A
8:30 AM36 °FPartly sunny.12 mph93%30.36 "HgN/A
8:00 AM36 °FBroken clouds.10 mph93%30.36 "HgN/A
7:30 AM36 °FBroken clouds.10 mph93%30.33 "HgN/A
7:00 AM36 °FBroken clouds.6 mph93%30.33 "HgN/A
6:30 AM36 °FPartly cloudy.7 mph93%30.30 "HgN/A
6:00 AM36 °FPassing clouds.6 mph100%30.30 "Hg4 mi
5:30 AM36 °FFog.7 mph100%30.30 "Hg2 mi
5:00 AM36 °FFog.9 mph100%30.27 "Hg2 mi
4:30 AM36 °FFog.5 mph93%30.27 "Hg2 mi
4:00 AM36 °FPassing clouds.5 mph93%30.24 "Hg4 mi
3:00 AM36 °FPassing clouds.3 mph93%30.24 "Hg4 mi
Weather by CustomWeather, © 2015

See weather overviewHow to use our weather pages